Regional Weather Roundup
Issued by NWS

Home | Current Version | Previous Version | Graphics & Text | Print | Product List | Glossary On
Versions: 1 2 3 4 5 6 7 8 9 10 11 12 13 14 15 16 17 18 19 20 21 22 23 24 25 26 27 28 29 30 31 32 33 34 35 36 37 38 39 40 41 42 43 44 45 46 47 48 49 50
088
ASUS43 KOAX 231902
RWRNE

WEATHER ROUNDUP FOR NEBRASKA
NATIONAL WEATHER SERVICE OMAHA NE
200 PM CDT SUN JUL 23 2017

NOTES: SATELLITE DATA IS BEING USED TO AUGMENT CLOUD COVER ABOVE
       12000 FEET.
       "FAIR" INDICATES FEW OR NO CLOUDS BELOW 12,000 FEET WITH NO
       SIGNIFICANT WEATHER AND/OR OBSTRUCTIONS TO VISIBILITY.


NEZ001>004-019>022-054>056-232000-
NEBRASKA PANHANDLE

CITY           SKY/WX    TMP DP  RH WIND       PRES   REMARKS
SCOTTSBLUFF    SUNNY     91  55  29 E10       30.09F
ALLIANCE       SUNNY     92  49  22 S9        30.10F
CHADRON        SUNNY     91  52  26 SE8       30.06F
GORDON         FAIR      85  53  32 E10       30.10F
KIMBALL        SUNNY     89  48  24 W5        30.17F
SIDNEY         SUNNY     93  45  19 S14G21    30.15F
$$

NEZ057>060-069>072-079>082-232000-
SOUTHWEST NEBRASKA

CITY           SKY/WX    TMP DP  RH WIND       PRES   REMARKS
NORTH PLATTE   SUNNY     93  40  15 SW6       30.06F
IMPERIAL       SUNNY     94  45  18 E7        30.08F HX  90
LEXINGTON      SUNNY     88  64  45 E7        30.04F
MCCOOK         SUNNY     91  57  31 VRB5      30.05F
OGALLALA       SUNNY     92  42  17 SE6       30.09F
$$

NEZ005>010-023>029-035>040-094-232000-
NORTH CENTRAL NEBRASKA

CITY           SKY/WX    TMP DP  RH WIND       PRES   REMARKS
VALENTINE      SUNNY     91  42  18 E12       30.07F
AINSWORTH      SUNNY     85  54  34 NE7       30.08F
BROKEN BOW     SUNNY     88  58  36 E9        30.05F
O`NEILL        SUNNY     82  59  45 N8        30.06S
ORD            SUNNY     88  53  30 N7        30.03F
THEDFORD       SUNNY     90  52  27 E5        30.08F
$$

NEZ041-046>049-061>064-073>077-083>087-232000-
SOUTH CENTRAL NEBRASKA

CITY           SKY/WX    TMP DP  RH WIND       PRES   REMARKS
GRAND ISLAND   SUNNY     87  65  47 N12       30.02F
AURORA         SUNNY     84  71  64 N9        30.01S
HASTINGS       SUNNY     85  66  53 N9        30.03F
HEBRON         SUNNY     90  70  51 N9        29.97F HX  95
HOLDREGE       SUNNY     86  60  41 N3        30.04F
KEARNEY        SUNNY     87  67  51 N12       30.04F HX  90
YORK           SUNNY     84  68  58 N5        30.00S
$$

NEZ011>018-030>034-042>045-232000-
NORTHEAST NEBRASKA

CITY           SKY/WX    TMP DP  RH WIND       PRES   REMARKS
NORFOLK        SUNNY     86  55  34 N9G16     30.01F
ALBION         SUNNY     87  59  38 NE9       30.02F
BLAIR          SUNNY     87  63  43 N12       29.97S
COLUMBUS       SUNNY     87  63  44 N8        30.00F
FREMONT        SUNNY     87  62  42 N8        29.98F
TEKAMAH        SUNNY     86  60  41 N14       29.97S
WAYNE          SUNNY     85  57  38 N9G20     30.00F
$$

NEZ050>053-065>068-078-088>093-232000-
SOUTHEAST NEBRASKA

CITY           SKY/WX    TMP DP  RH WIND       PRES   REMARKS
LINCOLN        SUNNY     89  69  51 NE8       29.96F HX  93
OMAHA EPPLEY   MOSUNNY   90  63  40 N10       29.94F HX  91
BEATRICE       SUNNY     91  73  55 N12       29.96F HX 100
FALLS CITY     MOSUNNY   89  76  65 N8        29.92F HX 100
NEBRASKA CITY  MOSUNNY   86  76  73 N7        29.95S HX  96
PLATTSMOUTH    SUNNY     86  68  54 NW6       29.96S HX  90
$$

NEZ044-045-051>053-067-232000-
OMAHA AREA

CITY           SKY/WX    TMP DP  RH WIND       PRES   REMARKS
OMAHA EPPLEY   MOSUNNY   90  63  40 N10       29.94F HX  91
BLAIR          SUNNY     87  63  43 N12       29.97S
FREMONT        SUNNY     87  62  42 N8        29.98F
MILLARD        SUNNY     89  64  41 NW8       29.96S HX  90
OFFUTT AFB     SUNNY     90  66  45 N7        29.94F HX  92
PLATTSMOUTH    SUNNY     86  68  54 NW6       29.96S HX  90
WAHOO          FAIR      87  66  49 N12       29.97S
$$




USA.gov is the U.S. government's official web portal to all federal, state and local government web resources and services.